Regional Weather Roundup
Issued by NWS

Home | Current Version | Previous Version | Graphics & Text | Print | Product List | Glossary On
Versions: 1 2 3 4 5 6 7 8 9 10 11 12 13 14 15 16 17 18 19 20 21 22 23 24 25 26 27 28 29 30 31 32 33 34 35 36 37 38 39 40 41 42 43 44 45 46 47 48 49 50
000
ASUS43 KIND 210400
RWRIN

WEATHER ROUNDUP FOR INDIANA
NATIONAL WEATHER SERVICE INDIANAPOLIS IN
1200 AM EDT THU SEP 21 2017

NOTE: "FAIR" INDICATES FEW OR NO CLOUDS BELOW 12,000 FEET WITH NO
SIGNIFICANT WEATHER AND/OR OBSTRUCTIONS TO VISIBILITY.

* - STATION DOES NOT REPORT WEATHER SUCH AS PRECIPITATION OR FOG.

+ - STATION NOT QUALITY CONTROLLED BY THE NATIONAL WEATHER SERVICE.
    USE DATA WITH CAUTION...ESPECIALLY DEWPOINT AND RELATIVE
    HUMIDITY OBSERVATIONS.

INZ001>003-010>013-019-020-210500-
NORTHWEST INDIANA

CITY           SKY/WX    TMP DP  RH WIND       PRES   REMARKS
KNOX *+        CLEAR     70  68  94 S5        29.96R
MICHIGAN CITY+ CLEAR     75  66  73 S5        29.96R
MONTICELLO +   CLEAR     77  68  73 S6        29.97R
RENSSELAER +   CLEAR     73  63  68 S5        29.96R
VALPARAISO     CLEAR     76  69  79 S5        29.96R

$$

LMZ046-743>745-210500-
SOUTHERN LAKE MICHIGAN

STATION/POSITION TIME  TEMP    WIND        PRES    WAVE
                       AIR SEA DIR/SP/G            HT
                 (UTC) (F)     (DEG/KT/KT) (MB)    (FT)
BURNS HARBOR     0340   79     180/  9/ 12 1013.9R
MICHIGAN CITY    0330   80     160/ 11/ 13   N/A
5NW MICH CITY    0350   75 70  190/  8/ 10   N/A     1

$$

INZ004-005-014>016-021>024-210500-
NORTH CENTRAL INDIANA

CITY           SKY/WX    TMP DP  RH WIND       PRES   REMARKS
GOSHEN         CLEAR     75  66  73 S8        29.98R
SOUTH BEND     CLEAR     75  69  81 SE6       29.97R
WARSAW +       CLEAR     73  68  83 CALM      29.99R

$$

INZ006>009-017-018-025>027-210500-
NORTHEAST INDIANA

CITY           SKY/WX    TMP DP  RH WIND       PRES   REMARKS
AUBURN +       CLEAR     68  64  88 CALM      30.01R
FORT WAYNE     CLEAR     70  66  87 S5        30.01R
KENDALLVILLE + CLEAR     71  67  89 S5        30.01R

$$

INZ028-029-035-036-043>045-051>053-210500-
WEST CENTRAL INDIANA

CITY           SKY/WX    TMP DP  RH WIND       PRES   REMARKS
GREENCASTLE +  CLEAR     72  68  88 S3        30.01R
LAFAYETTE      CLEAR     76  69  79 S6        29.96R
TERRE HAUTE    CLEAR     74  68  81 S7        29.98R

$$

INZ030>032-037>040-046>048-054>057-064-065-210500-
CENTRAL INDIANA

CITY           SKY/WX    TMP DP  RH WIND       PRES   REMARKS
GREENWOOD *+   CLEAR     79  74  83 S6        30.01R
INDIANAPOLIS   CLEAR     76  70  82 S9        30.00R
-EAGLE CREEK   CLEAR     76  69  79 CALM      30.00R
KOKOMO +       CLEAR     71  68  90 S7        30.00R
MT COMFORT *+    N/A    N/A N/A N/A MISG        N/A
SHELBYVILLE    CLEAR     74  68  81 S6        30.00R

$$

INZ033-034-041-042-049-050-058-059-210500-
EAST CENTRAL INDIANA

CITY           SKY/WX    TMP DP  RH WIND       PRES   REMARKS
MUNCIE         CLEAR     76  69  79 S8        30.01R
RICHMOND +     CLEAR     68  66  94 S5        30.05R FOG

$$

INZ060-061-067>069-081>083-085>088-210500-
SOUTHWEST INDIANA

CITY           SKY/WX    TMP DP  RH WIND       PRES   REMARKS
EVANSVILLE     CLEAR     75  70  84 CALM      29.99R
HUNTINGBURG +  CLEAR     76  71  85 S5        30.00R

$$

INZ062-063-066-070>080-084-089>092-210500-
SOUTH CENTRAL AND SOUTHEAST INDIANA

CITY           SKY/WX    TMP DP  RH WIND       PRES   REMARKS
BLOOMINGTON    CLEAR     76  68  76 S6        30.00R
MADISON *+     CLEAR     70  68  94 CALM      30.04S
SEYMOUR +      CLEAR     73  68  83 CALM      30.01R

$$





USA.gov is the U.S. government's official web portal to all federal, state and local government web resources and services.